| time (UTC) | temp F | wind direction | speed knots | gust knots | rain 1hr in | rain 24hr in | rain mn in | humidity % | barometer mb |
| 20260503214503 | 59 | 0 | 0.0 | 2.6 | 0.00 | 0.00 | 0.00 | 84 | 1034.2 |
| 20260503213818 | 58 | 0 | 0.0 | 0.9 | 0.00 | 0.00 | 0.00 | 90 | 1034.3 |
| 20260503212703 | 56 | 0 | 0.0 | 0.9 | 0.00 | 0.00 | 0.00 | 92 | 1034.3 |
| 20260503211803 | 55 | 0 | 0.0 | 0.0 | 0.00 | 0.00 | 0.00 | 93 | 1034.3 |
| 20260503210903 | 54 | 0 | 0.0 | 0.0 | 0.00 | 0.00 | 0.00 | 93 | 1034.3 |
| 20260503210003 | 54 | 0 | 0.0 | 0.0 | 0.00 | 0.00 | 0.00 | 93 | 1034.4 |
| 20260503205403 | 54 | 0 | 0.0 | 0.9 | 0.00 | 0.00 | 0.00 | 93 | 1034.3 |
| 20260503204503 | 53 | 0 | 0.0 | 0.0 | 0.00 | 0.00 | 0.00 | 93 | 1034.3 |
| 20260503203603 | 53 | 0 | 0.0 | 0.9 | 0.00 | 0.00 | 0.00 | 93 | 1034.3 |
| 20260503202703 | 53 | 0 | 0.0 | 0.9 | 0.00 | 0.00 | 0.00 | 93 | 1034.2 |
| 20260503202017 | 52 | 0 | 0.0 | 0.0 | 0.00 | 0.00 | 0.00 | 93 | 1034.2 |
| 20260503200903 | 52 | 0 | 0.0 | 0.0 | 0.00 | 0.00 | 0.00 | 93 | 1034.1 |
| 20260503200003 | 52 | 0 | 0.0 | 0.0 | 0.00 | 0.00 | 0.00 | 93 | 1034.0 |
| 20260503195403 | 51 | 0 | 0.0 | 0.0 | 0.00 | 0.00 | 0.00 | 93 | 1034.0 |
| 20260503194503 | 51 | 0 | 0.0 | 0.0 | 0.00 | 0.00 | 0.00 | 93 | 1034.0 |
| 20260503193603 | 51 | 0 | 0.0 | 0.0 | 0.00 | 0.00 | 0.00 | 93 | 1033.9 |
| 20260503192703 | 51 | 0 | 0.0 | 0.0 | 0.00 | 0.00 | 0.00 | 92 | 1033.8 |
| 20260503191803 | 51 | 0 | 0.0 | 0.0 | 0.00 | 0.00 | 0.00 | 92 | 1033.7 |
| 20260503191118 | 50 | 0 | 0.0 | 0.0 | 0.00 | 0.00 | 0.00 | 92 | 1033.7 |
| 20260503190003 | 50 | 0 | 0.0 | 0.9 | 0.00 | 0.00 | 0.00 | 92 | 1033.5 |
| 20260503185403 | 50 | 0 | 0.0 | 0.0 | 0.00 | 0.00 | 0.00 | 92 | 1033.4 |
| 20260503184503 | 50 | 0 | 0.0 | 0.0 | 0.00 | 0.00 | 0.00 | 92 | 1033.4 |
| 20260503183603 | 50 | 0 | 0.0 | 0.0 | 0.00 | 0.00 | 0.00 | 92 | 1033.2 |
| 20260503182704 | 50 | 0 | 0.0 | 0.0 | 0.00 | 0.00 | 0.00 | 92 | 1033.1 |
| 20260503181803 | 50 | 0 | 0.0 | 0.0 | 0.00 | 0.00 | 0.00 | 92 | 1033.1 |
| 20260503181117 | 51 | 0 | 0.0 | 0.0 | 0.00 | 0.00 | 0.00 | 92 | 1033.0 |
| 20260503180004 | 51 | 0 | 0.0 | 0.0 | 0.00 | 0.00 | 0.00 | 92 | 1032.9 |
| 20260503175618 | 51 | 0 | 0.0 | 0.0 | 0.00 | 0.00 | 0.00 | 92 | 1032.9 |
| 20260503174503 | 51 | 0 | 0.0 | 0.0 | 0.00 | 0.00 | 0.00 | 91 | 1032.9 |
| 20260503173603 | 51 | 0 | 0.0 | 0.0 | 0.00 | 0.00 | 0.00 | 91 | 1032.9 |
| 20260503172703 | 51 | 0 | 0.0 | 0.0 | 0.00 | 0.00 | 0.00 | 91 | 1032.8 |
| 20260503172017 | 51 | 0 | 0.0 | 0.0 | 0.00 | 0.00 | 0.00 | 91 | 1032.9 |
| 20260503171117 | 51 | 0 | 0.0 | 0.0 | 0.00 | 0.00 | 0.00 | 91 | 1033.0 |
| 20260503150904 | 52 | 0 | 0.0 | 0.9 | 0.00 | 0.00 | 0.00 | 92 | 1033.6 |
| 20260503150219 | 52 | 0 | 0.0 | 0.0 | 0.00 | 0.00 | 0.00 | 92 | 1033.7 |
| 20260503140217 | 51 | 0 | 0.0 | 0.0 | 0.00 | 0.00 | 0.00 | 92 | 1034.2 |
| 20260503130903 | 49 | 0 | 0.0 | 0.0 | 0.00 | 0.00 | 0.00 | 91 | 1034.2 |
| 20260503130217 | 49 | 0 | 0.0 | 0.0 | 0.00 | 0.00 | 0.00 | 91 | 1034.2 |
| 20260503110218 | 48 | 0 | 0.0 | 0.0 | 0.00 | 0.00 | 0.00 | 89 | 1033.8 |
| 20260503080903 | 51 | 0 | 0.0 | 0.0 | 0.00 | 0.00 | 0.00 | 85 | 1032.4 |
| 20260503072703 | 52 | 0 | 0.0 | 0.0 | 0.00 | 0.00 | 0.00 | 82 | 1032.2 |
| 20260503072018 | 52 | 0 | 0.0 | 0.0 | 0.00 | 0.00 | 0.00 | 82 | 1032.2 |
| 20260503070903 | 53 | 0 | 0.0 | 0.0 | 0.00 | 0.00 | 0.00 | 82 | 1032.2 |
| 20260503054717 | 59 | 0 | 0.0 | 1.7 | 0.00 | 0.00 | 0.00 | 73 | 1031.8 |
| 20260503053603 | 61 | 0 | 0.0 | 0.9 | 0.00 | 0.00 | 0.00 | 70 | 1031.7 |
| 20260503052918 | 61 | 0 | 0.0 | 0.0 | 0.00 | 0.00 | 0.00 | 69 | 1031.6 |
| 20260503051803 | 62 | 53 | 0.9 | 0.9 | 0.00 | 0.00 | 0.00 | 67 | 1031.5 |
| 20260503050903 | 63 | 55 | 1.7 | 3.5 | 0.00 | 0.00 | 0.00 | 66 | 1031.5 |
| 20260503050003 | 64 | 55 | 1.7 | 4.3 | 0.00 | 0.00 | 0.00 | 64 | 1031.4 |
| 20260503045403 | 64 | 53 | 1.7 | 4.3 | 0.00 | 0.00 | 0.00 | 64 | 1031.4 |
| 20260503044503 | 65 | 51 | 2.6 | 3.5 | 0.00 | 0.00 | 0.00 | 63 | 1031.4 |
| 20260503043603 | 65 | 50 | 2.6 | 5.2 | 0.00 | 0.00 | 0.00 | 62 | 1031.4 |
| 20260503042703 | 66 | 43 | 2.6 | 6.1 | 0.00 | 0.00 | 0.00 | 61 | 1031.4 |
| 20260503041803 | 66 | 45 | 1.7 | 4.3 | 0.00 | 0.00 | 0.00 | 60 | 1031.5 |
| 20260503040903 | 67 | 55 | 2.6 | 5.2 | 0.00 | 0.00 | 0.00 | 60 | 1031.4 |
| 20260503040217 | 67 | 32 | 2.6 | 6.1 | 0.00 | 0.00 | 0.00 | 61 | 1031.4 |
| 20260503035441 | 67 | 29 | 1.7 | 6.1 | 0.00 | 0.00 | 0.00 | 59 | 1031.4 |
| 20260503034504 | 68 | 32 | 1.7 | 4.3 | 0.00 | 0.00 | 0.00 | 58 | 1031.3 |
| 20260503033818 | 67 | 342 | 1.7 | 6.1 | 0.00 | 0.00 | 0.00 | 58 | 1031.3 |
| 20260503032703 | 68 | 20 | 1.7 | 6.1 | 0.00 | 0.00 | 0.00 | 58 | 1031.3 |
| 20260503031803 | 68 | 28 | 2.6 | 6.1 | 0.00 | 0.00 | 0.00 | 57 | 1031.4 |
| 20260503030906 | 68 | 35 | 2.6 | 5.2 | 0.00 | 0.00 | 0.00 | 56 | 1031.4 |
| 20260503030004 | 68 | 46 | 2.6 | 7.0 | 0.00 | 0.00 | 0.00 | 57 | 1031.4 |
| 20260503025403 | 68 | 23 | 2.6 | 7.0 | 0.00 | 0.00 | 0.00 | 57 | 1031.5 |
| 20260503024503 | 68 | 20 | 1.7 | 6.1 | 0.00 | 0.00 | 0.00 | 57 | 1031.5 |
| 20260503023817 | 68 | 7 | 1.7 | 6.1 | 0.00 | 0.00 | 0.00 | 57 | 1031.6 |
| 20260503022916 | 68 | 313 | 1.7 | 6.1 | 0.00 | 0.00 | 0.00 | 57 | 1031.6 |
| 20260503021803 | 68 | 355 | 1.7 | 4.3 | 0.00 | 0.00 | 0.00 | 56 | 1031.6 |
| 20260503020903 | 69 | 36 | 2.6 | 5.2 | 0.00 | 0.00 | 0.00 | 56 | 1031.7 |
| 20260503020003 | 69 | 38 | 2.6 | 7.8 | 0.00 | 0.00 | 0.00 | 56 | 1031.8 |
| 20260503015403 | 69 | 24 | 2.6 | 7.8 | 0.00 | 0.00 | 0.00 | 55 | 1031.8 |
| 20260503014503 | 69 | 13 | 2.6 | 7.8 | 0.00 | 0.00 | 0.00 | 56 | 1031.9 |
| 20260503013603 | 69 | 13 | 2.6 | 7.0 | 0.00 | 0.00 | 0.00 | 53 | 1032.0 |
| 20260503012703 | 69 | 8 | 2.6 | 7.0 | 0.00 | 0.00 | 0.00 | 54 | 1032.1 |
| 20260503011803 | 69 | 4 | 2.6 | 7.8 | 0.00 | 0.00 | 0.00 | 53 | 1032.2 |
| 20260503010903 | 69 | 15 | 1.7 | 3.5 | 0.00 | 0.00 | 0.00 | 57 | 1032.2 |
| 20260503010003 | 69 | 18 | 1.7 | 7.0 | 0.00 | 0.00 | 0.00 | 56 | 1032.4 |
| 20260503005403 | 69 | 6 | 2.6 | 7.0 | 0.00 | 0.00 | 0.00 | 56 | 1032.5 |
| 20260503004503 | 68 | 12 | 2.6 | 7.0 | 0.00 | 0.00 | 0.00 | 57 | 1032.6 |
| 20260503003603 | 68 | 2 | 1.7 | 5.2 | 0.00 | 0.00 | 0.00 | 56 | 1032.7 |
| 20260503002703 | 68 | 338 | 1.7 | 4.3 | 0.00 | 0.00 | 0.00 | 54 | 1032.8 |
| 20260503001803 | 68 | 31 | 1.7 | 5.2 | 0.00 | 0.00 | 0.00 | 57 | 1033.0 |
| 20260503001119 | 67 | 18 | 1.7 | 4.3 | 0.00 | 0.00 | 0.00 | 59 | 1033.0 |
| 20260503000003 | 66 | 321 | 1.7 | 3.5 | 0.00 | 0.00 | 0.00 | 59 | 1033.2 |
| 20260502235617 | 66 | 297 | 1.7 | 5.2 | 0.00 | 0.00 | 0.00 | 60 | 1033.3 |
| 20260502234717 | 66 | 282 | 1.7 | 5.2 | 0.00 | 0.00 | 0.00 | 62 | 1033.4 |
| 20260502233603 | 66 | 272 | 1.7 | 3.5 | 0.00 | 0.00 | 0.00 | 60 | 1033.5 |
| 20260502232703 | 66 | 324 | 1.7 | 4.3 | 0.00 | 0.00 | 0.00 | 61 | 1033.6 |
| 20260502231803 | 66 | 269 | 2.6 | 5.2 | 0.00 | 0.00 | 0.00 | 61 | 1033.7 |
| 20260502231118 | 65 | 254 | 1.7 | 6.1 | 0.00 | 0.00 | 0.00 | 65 | 1033.7 |
| 20260502230003 | 65 | 275 | 1.7 | 3.5 | 0.00 | 0.00 | 0.00 | 62 | 1033.8 |
| 20260502225403 | 65 | 319 | 1.7 | 3.5 | 0.00 | 0.00 | 0.00 | 63 | 1033.8 |
| 20260502224503 | 65 | 268 | 1.7 | 4.3 | 0.00 | 0.00 | 0.00 | 62 | 1033.8 |
| 20260502223603 | 64 | 310 | 1.7 | 4.3 | 0.00 | 0.00 | 0.00 | 65 | 1033.9 |
| 20260502222703 | 64 | 246 | 1.7 | 3.5 | 0.00 | 0.00 | 0.00 | 66 | 1033.8 |
| 20260502221803 | 63 | 221 | 1.7 | 4.3 | 0.00 | 0.00 | 0.00 | 66 | 1033.9 |
| 20260502220903 | 62 | 272 | 0.9 | 4.3 | 0.00 | 0.00 | 0.00 | 68 | 1033.9 |
| 20260502220003 | 62 | 0 | 0.0 | 2.6 | 0.00 | 0.00 | 0.00 | 73 | 1033.9 |
| 20260502215403 | 61 | 0 | 0.0 | 0.0 | 0.00 | 0.00 | 0.00 | 75 | 1034.0 |